Regional Weather Roundup
Issued by NWS

Home | Current Version | Previous Version | Graphics & Text | Print | Product List | Glossary On
Versions: 1 2 3 4 5 6 7 8 9 10 11 12 13 14 15 16 17 18 19 20 21 22 23 24 25 26 27 28 29 30 31 32 33 34 35 36 37 38 39 40 41 42 43 44 45 46 47 48 49 50
000
ASUS43 KFSD 281702
RWRSD

WEATHER ROUNDUP FOR SOUTH DAKOTA
NATIONAL WEATHER SERVICE SIOUX FALLS SD
1200 PM CDT SAT MAY 28 2016

NOTE: "FAIR" INDICATES FEW OR NO CLOUDS BELOW 12,000 FEET WITH NO
SIGNIFICANT WEATHER AND/OR OBSTRUCTIONS TO VISIBILITY.


SDZ001>005-009-010-012>017-281800-
NORTHWEST AND NORTH CENTRAL SOUTH DAKOTA

CITY           SKY/WX    TMP DP  RH WIND       PRES   REMARKS
BUFFALO          N/A     62  51  67 NW3       29.85R
FAITH            N/A     70  46  42 VRB6      29.88S
MOBRIDGE       CLOUDY    69  56  62 N8        29.84R
$$

SDZ012>016-024>037-041>051-057-063-072>074-281800-
SOUTHWEST AND SOUTH CENTRAL SOUTH DAKOTA

CITY           SKY/WX    TMP DP  RH WIND       PRES   REMARKS
RAPID CTY ARPT MOSUNNY   69  47  45 NE6       29.91S
PIERRE         CLOUDY    68  54  60 N7        29.84S
CUSTER         CLOUDY    58  39  49 VRB5      29.98R
ELLSWORTH AFB  SUNNY     67  48  50 NE5       29.91S
PHILIP         CLOUDY    69  53  56 CALM      29.88S
PINE RIDGE     SUNNY     68  45  43 VRB5      29.92S
WINNER         CLOUDY    64  55  72 NW9       29.86R
$$

SDZ004>011-016>023-039-040-281800-
NORTHEAST SOUTH DAKOTA

CITY           SKY/WX    TMP DP  RH WIND       PRES   REMARKS
ABERDEEN       CLOUDY    64  58  80 NE8       29.83S
WATERTOWN      CLOUDY    62  56  80 NE9       29.81R
SISSETON         N/A     69  53  56 NE12      29.79F
$$

SDZ017-020-022-023-036>040-048>070-281800-
SOUTHEAST SOUTH DAKOTA

CITY           SKY/WX    TMP DP  RH WIND       PRES   REMARKS
SIOUX FALLS    CLOUDY    66  59  78 N9        29.77S
HURON          LGT RAIN  61  59  93 NE10      29.80R FOG
MITCHELL       LGT RAIN  62  60  93 N9        29.80S
YANKTON        CLOUDY    64  55  72 NW15      29.74S
$$

ABBREVIATIONS USED IN REMARKS
   TC - TEMPERATURE IN CELSIUS
  WCI - WIND CHILL INDEX
   HX - HEAT INDEX
  VSB - VISIBILITY





USA.gov is the U.S. government's official web portal to all federal, state and local government web resources and services.